NOAA 16 DEB

Satellite information

Favourite Embed

Satellite Type and Status

DEBRISIN ORBIT

Key statistics

Satellite NOAA 16 DEB at a glance.

Uptime

9164

Days in orbit

Revolutions

≈ 14.6

Per day

Orbit

SSO

Sun Synchronous Orbit

Inclination

98.8

Latest

Satellite identification and parameters

Extended collection of information and parameters for NOAA 16 DEB.

Object identification

Identified? True

Debris? True

Object name: NOAA 16 DEB

International designator: 2000-055QZ

Object number (NORAD): 42357

Object ID (CCSDS): 42357

Country: UNITED STATES OF AMERICA (US)

Current information (Y/N): Y

RCS size: SMALL

Orbital parameters

Period: 98.342 minutes

Inclination: 98.8097 deg

SMA: 7057.539 km

Apoapsis: 682.838 km

Periapsis: 675.97 km

RAAN: 59.0861 deg

Eccentricy: 0.00048658

Argument of periapsis: 74.8981 deg

Mean anomaly: 285.2757 deg

Mean motion: 14.64275758 rev/day

Mean motion (dot): 0.00043099 rev/day2

B* drag term: 0.0081313315 1/REarth

Two-line elements (TLE)

Creation date: Oct. 23, 2025, 6:40 p.m.

Reference frame: TEME

Reference center: EARTH

Epoch: Oct. 23, 2025, 3:21 a.m. UTC

TLE line 0: 0 NOAA 16 DEB

TLE line 1: 1 42357U 00055QZ 25296.14021174 .00043099 00000-0 81313-2 0 9998

TLE line 2: 2 42357 98.8097 59.0861 0004866 74.8981 285.2757 14.64275758502804

Live tracking on map

Real-time ground track for satellite NOAA 16 DEB.

In-orbit conjunctions

A list of the most updated potential collisions computed for object NOAA 16 DEB.

Target Orbit TCA Probability of collision Miss distance Type
COSMOS 2251 DEB LEO 2024-11-15 11:55:28 0.0003868582 734.0 (m) DEBRIS
COSMOS 1275 DEB LEO 2024-11-13 11:30:22 0.000277312 177.0 (m) DEBRIS
COSMOS 676 LEO 2024-09-18 02:37:46 0.00016167 154.0 (m) PAYLOAD
INTERCOSMOS 25 HEO 2024-08-08 14:01:29 0.000278006 75.0 (m) PAYLOAD

Associated space launch

The NOAA K, L and M POES satellites begin the fifth generation of improved environmental monitoring in support of NOAA missions. The instrument payload has significant improvements and additions/deletions. The instrument changes have effected the spacecraft subsystems and data formats.

NOAA 16 DEB was lifted into orbit during the mission ‘Titan II SLV | NOAA 16’, on board a Titan II SLV space rocket.

The launch took place on Sept. 21, 2000, 10:22 a.m. from Space Launch Complex 4W.

For more information about the launch, click the button.

Launch to space Titan II SLV | NOAA 16
Titan II SLV | NOAA 16

Agency: N/A

Status: Launch Successful

Launch date: Sept. 21, 2000, 10:22 a.m. UTC

Rocket: Titan II SLV

Launch pad: Space Launch Complex 4W

Location: Vandenberg SFB, CA, USA

...

Latest news about this satellite

There are no fresh news available about this satellite. Check back as we update our databases every day.


Newsletter sign-up

Weekly statistics, charts and insights to help you stay on top of the space industry.